User: anonymous   Login
Location: NJAA Observatory
(40.6819°N, 74.8979°W)
Time: 10:06:53
(UTC-04:00)
Language:

ALOS - Orbit

View from above orbital plane
View from above orbital plane
View from above satellite
View from above satellite

Ground track
Ground track

The orbit data is extracted from the following two-line orbital elements,

1 28931U 06002A   17178.94905916 +.00000048 +00000-0 +18077-4 0  9997
2 28931 097.8428 205.7661 0000633 056.9523 303.1740 14.62363619609039
Epoch (UTC): 27 June 2017 22:46:38
Eccentricity: 0.0000633
inclination: 97.8428°
perigee height: 685 km
apogee height: 686 km
right ascension of ascending node: 205.7661°
argument of perigee: 56.9523°
revolutions per day: 14.62363619
mean anomaly at epoch: 303.1740°
orbit number at epoch: 60903

The dashed part of the orbit path shows where the satellite is in the earth's shadow,  

DLR